STARLINK-34065, 63813

Orbit data source: Space-Track

STARLINK-34065, 63813 is a payload satellite owned by SpaceX/Seattle (US) in LEO that was launched on Sun, 04 May 2025 UTC via an FALCON 9 launch vehicle from the Air Force Eastern Test Range (AFETR). Payload-class satellites include a variety of spacecraft equipped with specific instruments for various scientific and technological missions. These include communications satellites like Starlink; space stations such as the ISS; scientific satellites like the Hubble; Earth observation satellites from companies like Planet Labs, Umbra, and HawkEye 360; GPS; miniature CubeSats for education and research; and military/defense satellites.

Loading next visibility...
Identifier
63813, 2025-092K
Orbit
LEO
Country
Flag of USUS
Related business
Manufacturer
SpaceX/Seattle
Mission
Operational Commercial Communications
Bus & Motor
STARLINK V2MO, Unknown motor
Mass
575 kg wet, ~530 kg dry
Launch date (UTC)
2025-05-04 (6 months ago)
Launch vehicle
FALCON 9
Launch site
Air Force Eastern Test Range (AFETR)
Object type
Payload
Rocket body
Debris
Shape & HBR
Box + 2 Pan, 17.7 m
Radar Cross Section
36.964 m², Large (>1 m²)

Expand to show TLE details & history
Last TLE update: 15 hours ago

TLE from 15 hours ago
0 STARLINK-34065
1 63813U 25092K   25310.92737870  .00026074  00000-0  95316-3 0  9999
2 63813  43.0022 141.9984 0001654 261.0370  99.0295 15.27597695 29826
Epoch: 2025-11-06T22:15Z
TLE epoch observation values (Epoch: 2025-11-06T22:15:25.519Z)
Latitude
0.00001°
Longitude
121.76341°
Altitude
482.95 km
Speed
7.626 km/s
True Right ascension
09h 27m 59s
True Declination
0° 00' 00"
Sunlit
Object was in daylight at epoch
Visualization orbit readout
Latitude
Unknown
Longitude
Unknown
Altitude
Unknown
Speed
Unknown
Apparent Right ascension
Unknown
Apparent Declination
Unknown
Sunlit
N/A
Visualization observer readout
Local Sidereal Time
09:18:56
Azimuth
Unknown
Elevation
Unknown
Doppler factor
Unknown
Orbital elements
Apogee altitude
486.076 km
Perigee altitude
483.806 km
Semi-major axis
6,863.078 km
Eccentricity
0.00017
Inclination
43.0022°
RAAN
141.9984°
Arg. of periapsis
261.037°
True anomaly
99.04822°
Mean anomaly
99.0295°
Eccentric anomaly
99.03886°
Mean motion
3.81737 °/min
Orbital period
94.31 mins
BSTAR
0.00095316
Loading maneuver chart data...
Computing Atmospheric mass density...
Loading historical data...
Loading historical data...
Loading historical data...
Loading historical data...
Loading historical data...
Loading historical data...
Loading historical data...

Documentation

Showing up to 5 results
|